Weather Roundup
Issued by NWS Corpus Christi, TX

Home | Current Version | Previous Version | Text Only | Print | Product List | Glossary On
Versions: 1 2 3 4 5 6 7 8 9 10 11 12 13 14 15 16 17 18 19 20 21 22 23 24 25 26 27 28 29 30 31 32 33 34 35 36 37 38 39 40 41 42 43 44 45 46 47 48 49 50
000
ASUS44 KCRP 190510
HRRCRP

SOUTH TEXAS REGIONAL WEATHER ROUNDUP
NATIONAL WEATHER SERVICE CORPUS CHRISTI TX
1200 AM CDT THU OCT 19 2017


TXZ229>244-190600-
...CORPUS CHRISTI AREA OBSERVATIONS...

CITY           SKY/WX    TMP DP  RH WIND       PRES   REMARKS
CORPUS CHRISTI CLOUDY    65  62  90 E3        30.09S
NAS CORPUS CHR CLOUDY    76  68  76 SE10      30.08S
ROCKPORT       CLOUDY    74  67  78 E9        30.09S
KINGSVILLE ARP FAIR      61  61  99 CALM      30.09F
KINGSVILLE NAS CLOUDY    64  61  90 E3        30.09S
ALICE          CLOUDY    60  56  86 CALM      30.09S
$$

...VICTORIA AREA OBSERVATIONS...

CITY           SKY/WX    TMP DP  RH WIND       PRES   REMARKS
PORT LAVACA    PTCLDY    65  61  87 CALM      30.11F
VICTORIA       PTCLDY    61  58  90 E3        30.12S FOG
BEEVILLE       FAIR      62  62 100 E3        30.10F
PLEASANTON     CLOUDY    64  58  79 CALM      30.12R
SAN ANTONIO    MOCLDY    64  51  62 E3        30.12S
$$

...LAREDO AREA OBSERVATIONS...

CITY           SKY/WX    TMP DP  RH WIND       PRES   REMARKS
LAREDO         PTCLDY    69  59  70 SE8       30.09S
COTULLA        PTCLDY    66  57  72 SE6       30.10R
DEL RIO        PTCLDY    61  52  72 SE7       30.08S
MCALLEN        CLEAR     71  64  78 SE3       30.08F
HEBBRONVILLE   PTCLDY    63  58  83 CALM      30.11S
$$

...OTHER TEXAS OBSERVATIONS...

CITY           SKY/WX    TMP DP  RH WIND       PRES   REMARKS
BROWNSVILLE    CLEAR     69  66  90 CALM      30.08F
HOUSTON        PTCLDY    64  64 100 SE6       30.13F
COL. STATION   CLOUDY    64  56  75 S5        30.13R
AUSTIN         CLOUDY    53  51  93 CALM      30.12S
WACO           PTCLDY    63  50  62 S6        30.12R
FORT WORTH     MOCLDY    67  46  47 S10       30.09S
WICHITA FALLS  PTCLDY    61  45  55 S10       30.06S
LUBBOCK        CLOUDY    58  42  55 SE6       30.09R
EL PASO        CLOUDY    70  54  56 S3        30.10R
$$

...MARINE OBSERVATIONS...

STATION/POSITION TIME  SKY/WX   TEMP    WIND        PRES    VSBY  WAVE   SWELL
                                AIR SEA DIR/SP/G                  HT/PER HT/PER
                 (UTC)          (F)     (DEG/KT/KT) (MB)    (MI)  (FT/S) (FT/S)
PORT ARANSAS     NOT AVBL
BUOY 90 E PORT A 0450            80 82   80/ 14/ 17 1018.5F         3/ 6   2/ 6
BUOY 200 E PT IS 0450            78 84   70/ 14/ 19 1017.8S         6/ 8   5/ 8
BUOY 15 E GALVES 0350            77 80  100/ 14/ 16 1020.2          2/ 8   2/ 8
$$




USA.gov is the U.S. government's official web portal to all federal, state and local government web resources and services.